Regional Weather Roundup
Issued by NWS

Home | Current Version | Previous Version | Graphics & Text | Print | Product List | Glossary On
Versions: 1 2 3 4 5 6 7 8 9 10 11 12 13 14 15 16 17 18 19 20 21 22 23 24 25 26 27 28 29 30 31 32 33 34 35 36 37 38 39 40 41 42 43 44 45 46 47 48 49 50
921
ASUS43 KIND 240909
RWRIN

WEATHER ROUNDUP FOR INDIANA
NATIONAL WEATHER SERVICE INDIANAPOLIS IN
400 AM EST FRI FEB 24 2017

NOTE: "FAIR" INDICATES FEW OR NO CLOUDS BELOW 12,000 FEET WITH NO
SIGNIFICANT WEATHER AND/OR OBSTRUCTIONS TO VISIBILITY.

* - STATION DOES NOT REPORT WEATHER SUCH AS PRECIPITATION OR FOG.

+ - STATION NOT QUALITY CONTROLLED BY THE NATIONAL WEATHER SERVICE.
    USE DATA WITH CAUTION...ESPECIALLY DEWPOINT AND RELATIVE
    HUMIDITY OBSERVATIONS.

INZ001>003-010>013-019-020-241000-
NORTHWEST INDIANA

CITY           SKY/WX    TMP DP  RH WIND       PRES   REMARKS
GARY /AIRPORT/ CLOUDY    41  41  99 NE5       29.55F FOG
KNOX *+        CLOUDY    55  41  58 S16       29.54F
LA PORTE +     CLOUDY    52  51  95 SE8       29.54F FOG
MICHIGAN CITY+ CLOUDY    54  54 100 SW6       29.54S
MONTICELLO +   CLEAR     58  53  85 S10       29.56F
RENSSELAER +   CLEAR     55  54  94 SE13      29.53F
VALPARAISO     MOCLDY    56  54  93 SW5       29.54F FOG

$$

LMZ046-743>745-241000-
SOUTHERN LAKE MICHIGAN

STATION/POSITION TIME  TEMP    WIND        PRES    WAVE
                       AIR SEA DIR/SP/G            HT
                 (UTC) (F)     (DEG/KT/KT) (MB)    (FT)
BURNS HARBOR     0840   38     320/  6/ 10 1001.7F
MICHIGAN CITY    0840   42     220/  8/  9   N/A

$$

INZ004-005-014>016-021>024-241000-
NORTH CENTRAL INDIANA

CITY           SKY/WX    TMP DP  RH WIND       PRES   REMARKS
GOSHEN         CLOUDY    52  48  86 E7        29.61F FOG
LOGANSPORT +   CLEAR     55  54  94 SE13      29.59F
PERU/GRISSOM   PTCLDY    57  57 100 SE13      29.58F
ROCHESTER +    PTCLDY    61  55  82 S12       29.58F
SOUTH BEND     LGT RAIN  50  49  96 SE21      29.54F FOG
WARSAW +       PTCLDY    55  54  94 SE6       29.60F

$$

INZ006>009-017-018-025>027-241000-
NORTHEAST INDIANA

CITY           SKY/WX    TMP DP  RH WIND       PRES   REMARKS
ANGOLA *+        N/A     45  43  93 E7        29.65R
AUBURN +       CLOUDY    45  43  93 E7        29.67F FOG
FORT WAYNE     CLOUDY    49  46  90 E8        29.65F FOG
HUNTINGTON +   CLOUDY    58  55  91 S8        29.63F
KENDALLVILLE + CLOUDY    46  46  99 SE12      29.64F FOG

$$

INZ028-029-035-036-043>045-051>053-241000-
WEST CENTRAL INDIANA

CITY           SKY/WX    TMP DP  RH WIND       PRES   REMARKS
LAFAYETTE      CLEAR     58  54  86 SE9       29.56F
TERRE HAUTE    MOCLDY    63  54  72 S17G26    29.57F

$$

INZ030>032-037>040-046>048-054>057-064-065-241000-
CENTRAL INDIANA

CITY           SKY/WX    TMP DP  RH WIND       PRES   REMARKS
CP ATTERBURY + CLOUDY    57  52  82 S8        29.66S
FRANKFORT +    PTCLDY    58  55  89 S12       29.61F
GREENWOOD *+   MOCLDY    58  55  89 S8        29.65F
INDIANAPOLIS   PTCLDY    58  53  84 SE10      29.61F
-EAGLE CREEK   PTCLDY    58  53  84 SE7       29.61F
KOKOMO +       PTCLDY    57  54  89 SE12      29.62F
MARION +       PTCLDY    56  53  90 SE10      29.63F
MT COMFORT *+  MOCLDY    57  54  88 S7        29.64F
SHELBYVILLE    MOCLDY    61  53  75 S9        29.65S
ZIONSVILLE +   PTCLDY    57  53  86 SE10      29.62F

$$

INZ033-034-041-042-049-050-058-059-241000-
EAST CENTRAL INDIANA

CITY           SKY/WX    TMP DP  RH WIND       PRES   REMARKS
MUNCIE         PTCLDY    60  54  80 S6        29.65F

$$

INZ060-061-067>069-081>083-085>088-241000-
SOUTHWEST INDIANA

CITY           SKY/WX    TMP DP  RH WIND       PRES   REMARKS
EVANSVILLE     MOCLDY    63  54  72 S10       29.64F
HUNTINGBURG *+ CLOUDY    63  55  77 S15       29.66S
WASHINGTON +   CLOUDY    62  53  72 S14       29.63F

$$

INZ062-063-066-070>080-084-089>092-241000-
SOUTH CENTRAL AND SOUTHEAST INDIANA

CITY           SKY/WX    TMP DP  RH WIND       PRES   REMARKS
BEDFORD +      CLOUDY   N/A N/A N/A S6        29.66S
BLOOMINGTON    PTCLDY    64  53  67 S13       29.64F
MADISON *+     PTCLDY    59  52  77 SE7       29.72S
NORTH VERNON + PTCLDY    61  55  82 S7        29.69F
SEYMOUR +      MOCLDY    64  54  68 S15       29.67F

$$





USA.gov is the U.S. government's official web portal to all federal, state and local government web resources and services.